This demonstration page uses our WeatherBlox Daily Observations layout. Learn more.

Left ArrowRight Arrow

36.17497, -115.13722

Hourly Observations for March 29, 2016

Temp ( °F °C ) Dew Point ( °F °C ) Humidity (%) Winds ( mph kmh ) Pressure ( in mb ) Visibility ( mi km ) Precip ( " mm )
12:53 am 00:53 Mostly Clear 49 9.4 26 -3.3 41 41 SSE 3 6 29.6 1002 10 16.0934 0 0
1:53 am 01:53 Clear 50 10 25 -3.9 38 38 N 7 11 29.6 1003 10 16.0934 0 0
2:53 am 02:53 Mostly Clear 49 9.4 26 -3.3 41 41 Calm 29.62 1003 10 16.0934 0 0
3:53 am 03:53 Cloudy 48 8.9 26 -3.3 42 42 WNW 7 11 29.62 1003 10 16.0934 0 0
4:53 am 04:53 Partly Cloudy 49 9.4 23 -5 36 36 N 6 9 29.63 1004 10 16.0934 0 0
5:53 am 05:53 Partly Cloudy 48 8.9 24 -4.4 39 39 WNW 8 13 29.66 1005 10 16.0934 0 0
6:53 am 06:53 Sunny 46 7.8 27 -2.8 47 47 S 7 11 29.7 1006 10 16.0934 0 0
7:53 am 07:53 Sunny 48 8.9 27 -2.8 44 44 SE 6 9 29.72 1006 10 16.0934 0 0
8:53 am 08:53 Sunny 50 10 25 -3.9 38 38 E 8 13 29.72 1007 10 16.0934 0 0
9:53 am 09:53 Mostly Sunny 52 11.1 22 -5.6 31 31 N 15 24 29.74 1007 10 16.0934 0 0
10:53 am 10:53 Mostly Sunny 55 12.8 22 -5.6 28 28 N 21 33 29.74 1007 10 16.0934 0 0
11:53 am 11:53 Partly Cloudy 55 12.8 21 -6.1 26 26 WNW 7 11 29.75 1007 10 16.0934 0 0
12:53 pm 12:53 Partly Cloudy 57 13.9 21 -6.1 25 25 S 10 17 29.75 1007 10 16.0934 0 0
1:53 pm 13:53 Mostly Cloudy 59 15 20 -6.7 22 22 W 8 13 29.73 1007 10 16.0934 0 0
2:53 pm 14:53 Mostly Cloudy 59 15 20 -6.7 22 22 W 12 19 29.73 1007 10 16.0934 0 0
3:53 pm 15:53 Mostly Cloudy 59 15 18 -7.8 20 20 WSW 12 19 29.73 1007 10 16.0934 0 0
4:53 pm 16:53 Cloudy 59 15 16 -8.9 18 18 undefined N/A 29.74 1007 10 16.0934 0 0
5:53 pm 17:53 Cloudy 58 14.4 15 -9.4 18 18 N 7 11 29.75 1008 10 16.0934 0 0
6:53 pm 18:53 Cloudy 58 14.4 15 -9.4 18 18 ESE 6 9 29.77 1008 10 16.0934 0 0
7:53 pm 19:53 Mostly Cloudy 56 13.3 19 -7.2 24 24 SSW 6 9 29.78 1008 10 16.0934 0 0
8:53 pm 20:53 Clear 56 13.3 20 -6.7 24 24 W 7 11 29.8 1009 10 16.0934 0 0
9:53 pm 21:53 Clear 53 11.7 23 -5 31 31 NNW 17 28 29.82 1010 10 16.0934 0 0
10:53 pm 22:53 Mostly Clear 53 11.7 23 -5 31 31 NNW 15 24 29.82 1010 10 16.0934 0 0
11:53 pm 23:53 Clear 52 11.1 22 -5.6 31 31 NNW 17 28 29.83 1010 10 16.0934 0 0

Powered by AerisWeather